[[{"header":{"parameterUnit":"m.s-1","parameterCategory":1,"la1":30.2991,"la2":30.254,"lo1":-89.0895,"lo2":-89.0444,"dy":0.0017,"dx":0.0017,"nx":28,"ny":28,"refTime":"2023-07-24T09:00:00:Z","depth":0,"parameterNumber":2,"parameterNumberName":"U-component_of_WINDS"},"data":[0,0,0,0,0,0,0,0,0,0,0,0,0,0,0,0,0,0,0,0,0,0,0,0,0,0,0,0,0,0,0,0,0,0,0,0,0,0,0,0,0,0,0,0,0,0,0,0,0,0,0,0,0,0,0,0,0,0,1.7321,1.7322,0,1.7407,1.7408,1.7409,1.7413,1.7412,1.7411,1.7411,1.7498,1.7501,1.7505,0,0,0,0,0,0,0,0,0,0,0,0,0,1.7159,1.7161,1.7321,1.7322,1.7323,1.7406,1.7408,1.7409,1.7414,1.7412,1.7411,1.741,1.7497,1.7501,1.7505,0,0,0,0,0,0,0,0,0,0,0,0,0,1.7235,1.7162,1.732,1.7335,1.7337,1.7406,1.7408,1.7409,1.7414,1.7412,1.7411,1.741,1.7496,1.7501,1.7505,1.7565,0,0,1.752,1.7522,0,0,0,0,0,0,0,0,1.7231,1.7241,1.7332,1.7334,1.7337,1.7398,1.7383,1.7461,1.7414,1.7385,1.7411,1.7409,1.7466,1.7473,1.7493,1.7569,1.7573,1.7521,1.7524,1.7526,1.7527,0,0,0,0,0,0,0,1.7225,1.7237,1.7355,1.7333,1.7336,1.7337,1.7346,1.7398,1.7433,1.7387,1.7388,1.7398,1.7467,1.7488,1.7495,1.7574,1.7521,1.7525,1.7528,1.753,1.7701,1.7703,0,0,0,0,0,0,1.7217,1.7233,1.7352,1.7357,1.7279,1.7341,1.7351,1.738,1.7432,1.7439,1.7399,1.7398,1.748,1.7489,1.7498,1.7569,1.7526,1.753,1.7533,1.77,1.7702,1.7704,0,0,0,0,0,0,1.7214,1.7228,1.7348,1.7295,1.7311,1.7345,1.7377,1.7382,1.7403,1.7441,1.7447,1.7414,1.7479,1.7491,1.7548,1.7572,1.7532,1.7537,1.7698,1.77,1.7703,1.7713,0,0,0,0,0,0,1.7209,1.7227,1.725,1.7296,1.7313,1.7397,1.7379,1.7385,1.7411,1.7411,1.7457,1.7463,1.7479,1.754,1.7553,1.7578,1.7541,1.7696,1.7699,1.7702,1.7711,1.7716,1.772,0,0,0,0,0,1.7204,1.725,1.7252,1.7266,1.7344,1.7399,1.7409,1.7427,1.7414,1.7437,1.7461,1.7461,1.7568,1.7546,1.756,1.7587,1.7694,1.7698,1.7702,1.7709,1.7715,1.772,0,0,0,0,0,0,1.7207,1.7257,1.7258,1.7322,1.7356,1.74,1.743,1.7433,1.7472,1.7469,1.749,1.75,1.7556,1.7578,1.7553,1.7647,1.763,1.7636,1.763,1.7636,1.7641,1.7634,1.7545,0,0,0,0,0,1.7215,1.7257,1.7297,1.7349,1.7366,1.7395,1.742,1.743,1.7467,1.7481,1.751,1.7545,1.7586,1.7613,1.7653,1.7714,1.7723,1.774,1.7745,1.7748,1.7753,1.7785,1.7792,1.7716,1.7716,1.7716,0,0,1.7233,1.7265,1.729,1.7351,1.7378,1.7419,1.7407,1.7452,1.7482,1.7488,1.7543,1.7565,1.7605,1.7664,1.7692,1.7684,1.7776,1.7753,1.7755,1.7759,1.779,1.7797,1.7803,1.7718,1.7718,1.7717,0,0,1.7284,1.7314,1.7359,1.7387,1.7429,1.7448,1.7458,1.7502,1.7516,1.7572,1.7576,1.7612,1.7684,1.7711,1.7735,1.7795,1.7796,1.7808,1.7831,1.7862,1.7868,1.7874,1.7893,1.79,1.7813,1.7813,1.7813,0,1.73,1.7363,1.7382,1.7426,1.7451,1.7459,1.7503,1.753,1.7583,1.76,1.7591,1.7679,1.7707,1.7771,1.7785,1.7805,1.7817,1.7802,1.7866,1.7872,1.7877,1.7896,1.7903,1.7814,1.7814,1.7814,1.7814,0,1.7379,1.7423,1.7454,1.7504,1.7534,1.7578,1.7602,1.763,1.7638,1.7657,1.7712,1.7746,1.7792,1.7808,1.7817,1.7873,1.7867,1.7862,1.7845,1.7885,1.7903,1.791,1.7816,1.7815,1.7815,1.7815,0,0,1.7436,1.7495,1.7506,1.7528,1.7575,1.7608,1.7652,1.7697,1.7719,1.7755,1.7791,1.7851,1.7845,1.7872,1.7884,1.7911,1.7954,1.7902,1.7904,1.7909,1.8016,1.8018,1.8027,1.7956,1.7957,1.7958,1.8012,0,1.7491,1.757,1.7587,1.7654,1.7693,1.77,1.7738,1.777,1.7789,1.7824,1.7845,1.7886,1.7877,1.7893,1.792,1.7943,1.7976,1.794,1.7988,1.799,1.7976,1.8036,1.804,1.8088,1.8019,1.8021,1.8022,0,1.7567,1.7604,1.7675,1.7714,1.7731,1.7765,1.7806,1.784,1.7876,1.7888,1.7917,1.7925,1.797,1.7951,1.8012,1.7987,1.8008,1.8022,1.8025,1.8029,1.8007,1.804,1.8105,1.8111,1.8033,1.8032,1.8032,0,1.7598,1.7666,1.7716,1.7735,1.7783,1.7806,1.7827,1.7862,1.7887,1.7923,1.7939,1.798,1.8002,1.8034,1.8052,1.8037,1.8111,1.8095,1.8121,1.812,1.8135,1.8133,1.8202,1.8151,1.8151,1.8151,1.8151,0,1.7657,1.77,1.7731,1.7762,1.7809,1.7828,1.7874,1.7895,1.7925,1.796,1.7969,1.8,1.8024,1.8059,1.8074,1.8121,1.8131,1.8141,1.8144,1.8139,1.8138,1.8152,1.8148,1.8153,1.8152,1.8152,1.8152,0,1.77,1.7723,1.7778,1.7818,1.7829,1.7862,1.7896,1.7926,1.7945,1.7988,1.7999,1.8028,1.807,1.8092,1.8144,1.8154,1.8206,1.8208,1.8193,1.8194,1.8218,1.8215,1.8297,1.8308,1.8252,1.8252,1.8253,0,1.7735,1.7768,1.7811,1.7835,1.7856,1.7894,1.7919,1.7939,1.7965,1.8007,1.8032,1.8073,1.8108,1.8173,1.8199,1.8238,1.824,1.8266,1.8246,1.8239,1.8238,1.8235,1.8238,1.8269,1.827,1.827,1.827,0,1.7795,1.7804,1.784,1.788,1.791,1.7942,1.7974,1.7993,1.8018,1.8046,1.8088,1.8115,1.8167,1.8208,1.8249,1.827,1.8274,1.8277,1.8284,1.8279,1.8268,1.8272,1.8201,1.8274,1.8274,1.8274,1.8274,1.8273,1.7834,1.7862,1.7896,1.7936,1.7962,1.7991,1.8021,1.8043,1.8078,1.8122,1.8132,1.8175,1.8209,1.8264,1.8286,1.832,1.8315,1.8327,1.833,1.8332,1.8332,1.8264,1.8328,1.8328,1.8328,1.8328,1.8328,0,1.7892,1.7914,1.795,1.7994,1.8025,1.8026,1.8061,1.8087,1.8125,1.8156,1.8189,1.8237,1.8276,1.8304,1.8344,1.8366,1.8368,1.8375,1.8373,1.8377,1.8335,1.8323,1.8372,1.8372,1.8372,1.8372,1.8372,1.8372,1.7925,1.7973,1.7986,1.8046,1.8068,1.8111,1.813,1.8157,1.8182,1.8234,1.8266,1.8285,1.8314,1.8356,1.8391,1.8398,1.8412,1.8418,1.8425,1.8385,1.838,1.8376,1.8365,1.8422,1.8422,1.8464,1.8465,1.8465]},{"header":{"parameterUnit":"m.s-1","parameterCategory":1,"la1":30.2991,"la2":30.254,"lo1":-89.0895,"lo2":-89.0444,"dy":0.0017,"dx":0.0017,"nx":28,"ny":28,"refTime":"2023-07-24T09:00:00:Z","depth":0,"parameterNumber":3,"parameterNumberName":"V-component_of_WINDS"},"data":[0,0,0,0,0,0,0,0,0,0,0,0,0,0,0,0,0,0,0,0,0,0,0,0,0,0,0,0,0,0,0,0,0,0,0,0,0,0,0,0,0,0,0,0,0,0,0,0,0,0,0,0,0,0,0,0,0,0,3.9251,3.9251,0,3.921,3.9209,3.9209,3.9122,3.9121,3.9119,3.9117,3.9075,3.9075,3.9076,0,0,0,0,0,0,0,0,0,0,0,0,0,3.9254,3.9255,3.9251,3.9251,3.925,3.921,3.9209,3.9209,3.9123,3.9121,3.9118,3.9116,3.9075,3.9075,3.9076,0,0,0,0,0,0,0,0,0,0,0,0,0,3.9237,3.9255,3.9251,3.9202,3.9198,3.921,3.9209,3.9209,3.9123,3.9121,3.9118,3.9115,3.9074,3.9075,3.9076,3.9132,0,0,3.9078,3.9078,0,0,0,0,0,0,0,0,3.9238,3.9237,3.921,3.9206,3.92,3.9169,3.9195,3.9183,3.9124,3.9151,3.9117,3.9114,3.9108,3.9106,3.9104,3.913,3.9129,3.9078,3.9078,3.9079,3.9079,0,0,0,0,0,0,0,3.9239,3.9238,3.9235,3.921,3.9204,3.9182,3.9177,3.9192,3.9145,3.9149,3.9142,3.9139,3.9105,3.9103,3.9102,3.9128,3.9078,3.9079,3.9079,3.9079,3.9196,3.9198,0,0,0,0,0,0,3.9248,3.924,3.9236,3.9234,3.9213,3.9184,3.9178,3.9182,3.9144,3.9136,3.9141,3.9135,3.9103,3.9101,3.91,3.9162,3.9079,3.9079,3.908,3.9193,3.9197,3.9199,0,0,0,0,0,0,3.9248,3.9248,3.9238,3.9235,3.9232,3.9187,3.9191,3.9182,3.918,3.9139,3.913,3.9148,3.9101,3.9099,3.9124,3.9159,3.908,3.908,3.919,3.9194,3.9198,3.9287,0,0,0,0,0,0,3.9249,3.9249,3.9271,3.9236,3.9232,3.9264,3.9194,3.9183,3.9182,3.9173,3.9143,3.9135,3.9099,3.9124,3.9125,3.9159,3.9081,3.9187,3.9192,3.9197,3.9281,3.9294,3.9305,0,0,0,0,0,3.9249,3.9298,3.9272,3.9272,3.9259,3.9266,3.9264,3.9221,3.9185,3.9206,3.9179,3.9136,3.9156,3.9127,3.9128,3.9162,3.9184,3.9191,3.9196,3.9276,3.9291,3.9305,0,0,0,0,0,0,3.9338,3.9293,3.9263,3.9303,3.9289,3.9251,3.9276,3.9239,3.9235,3.9227,3.9175,3.9168,3.92,3.9184,3.9153,3.9214,3.9163,3.917,3.9223,3.9238,3.9249,3.9252,3.9082,0,0,0,0,0,3.9362,3.9372,3.9332,3.937,3.9365,3.9322,3.9324,3.9292,3.9275,3.9269,3.9243,3.9229,3.9231,3.9234,3.9234,3.9279,3.9269,3.9302,3.9314,3.9324,3.933,3.935,3.9363,3.9219,3.9219,3.9219,0,0,3.9412,3.9389,3.9398,3.9388,3.9373,3.9383,3.9318,3.9332,3.9339,3.9271,3.9292,3.9273,3.9253,3.9288,3.9302,3.9275,3.9368,3.9332,3.934,3.934,3.9357,3.9371,3.9383,3.9223,3.9222,3.9222,0,0,3.9508,3.9493,3.9522,3.9508,3.9486,3.9457,3.9465,3.9432,3.9417,3.9438,3.9386,3.9393,3.9399,3.9386,3.938,3.947,3.943,3.9471,3.9533,3.9553,3.9564,3.9574,3.9604,3.9615,3.9477,3.9478,3.9478,0,3.9573,3.9587,3.9541,3.9558,3.9554,3.9493,3.9521,3.951,3.949,3.9488,3.9459,3.9463,3.9446,3.9475,3.9497,3.9495,3.95,3.9474,3.9566,3.9576,3.9584,3.9612,3.9623,3.9483,3.9482,3.9482,3.9481,0,3.9667,3.9678,3.9704,3.9685,3.9684,3.9707,3.9663,3.9668,3.9636,3.9609,3.963,3.9607,3.96,3.9605,3.9574,3.9629,3.9613,3.9576,3.9524,3.9604,3.9629,3.9639,3.949,3.9488,3.9487,3.9485,0,0,3.9818,3.9772,3.9783,3.9772,3.9743,3.975,3.977,3.9762,3.9766,3.9754,3.9768,3.9774,3.9738,3.9732,3.9699,3.9717,3.9786,3.9677,3.9676,3.9696,3.9842,3.9869,3.9882,3.976,3.9762,3.9764,3.9843,0,3.9906,3.9936,3.9895,3.9934,3.9942,3.9883,3.9899,3.9883,3.9859,3.9861,3.9834,3.9838,3.9793,3.9788,3.9803,3.9775,3.9815,3.9769,3.977,3.9771,3.9776,3.9895,3.9924,4.0001,3.9853,3.9855,3.9856,0,4.0013,4.0005,4.0045,4.0011,4.0013,4.0029,4.0017,4.0021,4.0001,3.9982,3.9974,3.9934,3.9949,3.99,3.9919,3.9889,3.9887,3.9873,3.9875,3.9872,3.9817,3.9894,4.0024,4.0035,3.9871,3.987,3.9869,0,4.0116,4.0115,4.0138,4.0132,4.0094,4.0106,4.0091,4.0068,4.0065,4.0056,4.0053,4.0046,4.0042,4.0036,3.9995,3.9963,4.0018,3.9966,4.0001,4.0002,4.0014,4.0014,4.0144,4.0017,4.0017,4.0017,4.0016,0,4.0217,4.0243,4.0184,4.0198,4.0225,4.0177,4.0204,4.0183,4.0163,4.0171,4.012,4.0128,4.0075,4.0077,4.0045,4.0064,4.0063,4.0047,4.0038,4.005,4.0052,4.0047,4.004,4.0019,4.0019,4.0018,4.0018,0,4.0336,4.0298,4.0319,4.0281,4.0272,4.0293,4.026,4.0271,4.0243,4.0254,4.0254,4.021,4.021,4.0169,4.016,4.0139,4.017,4.0153,4.0177,4.0171,4.0207,4.0204,4.0338,4.0352,4.0218,4.0219,4.022,0,4.0403,4.0421,4.0385,4.0387,4.0374,4.0378,4.0374,4.0327,4.0326,4.0303,4.0316,4.0312,4.0305,4.0308,4.0274,4.0267,4.0247,4.0295,4.0246,4.0257,4.0245,4.0244,4.0244,4.0305,4.0306,4.0308,4.0309,0,4.0524,4.0503,4.0501,4.0492,4.049,4.048,4.0467,4.0472,4.042,4.0421,4.042,4.0415,4.0405,4.0401,4.0387,4.037,4.033,4.0325,4.0332,4.0344,4.0357,4.0348,4.0203,4.0321,4.032,4.0319,4.0319,4.0318,4.0617,4.063,4.0606,4.0604,4.0589,4.0578,4.0586,4.0559,4.0557,4.0545,4.0518,4.0521,4.0497,4.0475,4.0461,4.0462,4.0438,4.0449,4.0452,4.0455,4.0461,4.0358,4.046,4.0459,4.0459,4.0458,4.0458,0,4.0733,4.0714,4.0714,4.0697,4.0695,4.0659,4.0642,4.0643,4.0646,4.0628,4.0623,4.062,4.0615,4.0582,4.0572,4.0579,4.056,4.0578,4.0576,4.0572,4.0484,4.0477,4.0593,4.0593,4.0593,4.0593,4.0593,4.0593,4.0793,4.0812,4.0789,4.0799,4.078,4.0783,4.0776,4.0765,4.075,4.0749,4.0745,4.0723,4.0698,4.0686,4.0679,4.0669,4.0667,4.069,4.0674,4.0592,4.0579,4.0566,4.056,4.0691,4.0691,4.0761,4.0762,4.0763]}]]